User: anonymous   Login
Location: Unspecified
(0.0000°N, 0.0000°E)
Time: 18:12:47
(UTC+00:00)
Language:

SSOT - Orbit

View from above orbital plane
View from above orbital plane
View from above satellite
View from above satellite

Ground track
Ground track

The orbit data is extracted from the following two-line orbital elements,

1 38011U 11076E   19080.39444273  .00000110  00000-0  20418-4 0  9993
2 38011  97.9023 159.3087 0001537  88.1490 271.9899 14.81991824392662
Epoch (UTC): 21 March 2019 09:27:59
Eccentricity: 0.0001537
inclination: 97.9023°
perigee height: 622 km
apogee height: 624 km
right ascension of ascending node: 159.3087°
argument of perigee: 88.1490°
revolutions per day: 14.81991824
mean anomaly at epoch: 271.9899°
orbit number at epoch: 39266

The dashed part of the orbit path shows where the satellite is in the earth's shadow,  

DLR